This is the latest recevied weather packets stored in our database for station/object KC3BAN-3. If no packets are shown the sender has not sent any weather packets the latest 10 day(s).
| Time | Temp. | Humidity | Pressure | Rain* | Wind** | Luminosity | Snow |
|---|---|---|---|---|---|---|---|
| 1777696954 | 12.78° C | 94% | 1013 hPa | 3.81 mm | - | - | - |
| 1777696654 | 12.78° C | 94% | 1012.7 hPa | 3.05 mm | - | - | - |
| 1777696354 | 13.33° C | 94% | 1012.8 hPa | 3.05 mm | - | - | - |
| 1777696045 | 12.78° C | 94% | 1012.9 hPa | 3.05 mm | - | - | - |
| 1777695740 | 13.33° C | 93% | 1013.1 hPa | 3.05 mm | - | - | - |
| 1777695434 | 13.33° C | 92% | 1013.1 hPa | 2.54 mm | - | - | - |
| 1777695256 | 13.33° C | 90% | 1013.2 hPa | 1.27 mm | - | - | - |
| 1777694830 | 13.33° C | 88% | 1013.1 hPa | 1.02 mm | - | - | - |
| 1777694530 | 12.78° C | 86% | 1013.1 hPa | 0.51 mm | - | - | - |
| 1777694229 | 12.78° C | 86% | 1013.3 hPa | 0.51 mm | - | - | - |
| 1777693927 | 12.78° C | 85% | 1013.4 hPa | 0.51 mm | - | - | - |
| 1777693756 | 12.78° C | 85% | 1013.5 hPa | 0.25 mm | - | - | - |
| 1777693328 | 12.78° C | 85% | 1013.5 hPa | 0.25 mm | - | - | - |
| 1777693026 | 12.78° C | 84% | 1013.4 hPa | 0.25 mm | - | - | - |
| 1777692854 | 12.22° C | 84% | 1013.4 hPa | 0.25 mm | - | - | - |
| 1777692428 | 12.22° C | 84% | 1013.6 hPa | 0.51 mm | - | - | - |
| 1777692126 | 12.22° C | 84% | 1013.6 hPa | 0.51 mm | - | - | - |
| 1777691826 | 12.22° C | 84% | 1013.7 hPa | 0.76 mm | - | - | - |
| 1777691525 | 12.22° C | 84% | 1013.7 hPa | 1.02 mm | - | - | - |
| 1777691226 | 12.22° C | 85% | 1013.6 hPa | 1.02 mm | - | - | - |
| 1777690925 | 12.22° C | 85% | 1013.7 hPa | 1.02 mm | - | - | - |
| 1777690755 | 12.78° C | 85% | 1014 hPa | 1.02 mm | - | - | - |
| 1777690325 | 12.78° C | 86% | 1014.1 hPa | 1.02 mm | - | - | - |
| 1777690156 | 12.22° C | 87% | 1014.3 hPa | 0.76 mm | - | - | - |
| 1777689723 | 12.22° C | 84% | 1014.2 hPa | 0.76 mm | - | - | - |
* Rain latest hour (hover to see other rain measurements)
** Current wind speed in m/s (hover to see current wind gust speed)